THORAD AGENA D DEB, 5185

Orbit data source: Space-Track

THORAD AGENA D DEB, 5185 is space debris in SSO originally from a launch on Wed, 08 Apr 1970 UTC launched from the Air Force Western Test Range (AFWTR). Debris objects in space refer to the collection of defunct objects orbiting the Earth. Examples of debris include non-operational satellites, rocket bodies, and fragments generated from explosions, collisions, or faulty payload assembly.

Loading next visibility...
Identifier
5185, 1970-025KB
Orbit
SSO
Country
Flag of USUS
Related business
Manufacturer
Unknown
Mission
Spacecraft
Bus & Motor
Unknown
Mass
Unknown
Launch date (UTC)
1970-04-08 (56 years ago)
Launch vehicle
Unknown
Launch site
Air Force Western Test Range (AFWTR)
Object type
Payload
Rocket body
Debris
Shape & HBR
Unknown shape, 0.1 m
Radar Cross Section
Medium (>0.1 m² and <1 m²)

Expand to show TLE details & history
Last TLE update: 14 hours ago

TLE from 14 hours ago
0 THORAD AGENA D DEB
1 05185U 70025KB  26255.68696232  .00001323  00000-0  94367-3 0  9996
2 05185  99.6388 333.8072 0062149 348.7917  11.1857 13.98429670814095
Epoch: 2026-09-12T16:29Z
TLE epoch observation values (Epoch: 2026-09-12T16:29:13.544Z)
Latitude
0.00002°
Longitude
94.80837°
Altitude
857.725 km
Speed
7.446 km/s
True Right ascension
22h 15m 13s
True Declination
0° 00' 00"
Sunlit
Object was in full shadow at epoch
Visualization orbit readout
Latitude
Unknown
Longitude
Unknown
Altitude
Unknown
Speed
Unknown
Apparent Right ascension
Unknown
Apparent Declination
Unknown
Sunlit
N/A
Visualization observer readout
Local Sidereal Time
23:02:44
Azimuth
Unknown
Elevation
Unknown
Doppler factor
Unknown
Orbital elements
Apogee altitude
941.683 km
Perigee altitude
851.261 km
Semi-major axis
7,274.609 km
Eccentricity
0.00621
Inclination
99.6388°
RAAN
333.8072°
Arg. of periapsis
348.7917°
True anomaly
11.32492°
Mean anomaly
11.1857°
Eccentric anomaly
11.2552°
Mean motion
3.49807 °/min
Orbital period
102.91 mins
BSTAR
0.00094367
Loading maneuver chart data...
Computing Atmospheric mass density...

Documentation

Showing up to 5 results
|